Flag for Israel Weather past 2 weeks in Ra'anana, Israel

Now
84 °F

Clear.


Feels Like: 92 °F
Forecast: 78 / 89 °F
Wind: 5 mph from North

Location: Dov Airport

Current Time: Sep 1, 2015 at 9:51:44 PM

Latest Report: Sep 1, 2015 at 8:50 PM


Visibility: 10 mi

Pressure: 29.83 "Hg

Humidity: 74%

Dew point: 75 °F

Location of Ra'ananaLocation

Historic Weather in Ra'anana — Graph

°F

Ra'anana temperature yesterday

Maximum temperature yesterday: 88 °F (at 11:50 AM)
Minimum temperature yesterday: 77 °F (at 5:50 AM)
Average temperature yesterday: 84 °F

Past Weeks' High & Low Weather Summary

 TemperatureHumidityPressure
High90 °F (Aug 18, 3:50 PM)84% (Aug 17, 8:50 PM)29.89 "Hg (Aug 17, 8:50 PM)
Low77 °F (Aug 26, 4:50 AM)49% (Aug 25, 12:50 PM)29.71 "Hg (Aug 22, 4:50 PM)
Average85 °F66%29.79 "Hg
* Reported Aug 17 8:50 PM — Sep 1 8:50 PM, Ra'anana, Weather by CustomWeather, © 2015

Note: Actual official high and low records may vary slightly from our data, if they occured in-between our weather recording intervals... More about our weather records

Advertising

Ra'anana weather history for previous 24 hours

 ConditionsComfort  
Time TempWeatherWind HumidityBarometerVisibility
8:50 PM
Tue, Sep 1
84 °FClear.5 mph74%29.83 "Hg10 mi
7:50 PM84 °FSunny.8 mph70%29.83 "Hg10 mi
6:50 PM84 °FSunny.9 mph74%29.83 "Hg10 mi
5:50 PM86 °FSunny.8 mph70%29.83 "Hg10 mi
4:50 PM88 °FSunny.10 mph62%29.83 "Hg10 mi
3:50 PM88 °FSunny.12 mph62%29.83 "Hg10 mi
2:50 PM88 °FSunny.13 mph62%29.83 "Hg10 mi
1:50 PM88 °FSunny.12 mph62%29.86 "Hg10 mi
12:50 PM88 °FSunny.12 mph62%29.86 "Hg10 mi
11:50 AM86 °FPassing clouds.12 mph66%29.86 "HgN/A
10:50 AM88 °FPassing clouds.10 mph59%29.86 "HgN/A
9:50 AM84 °FScattered clouds.9 mph66%29.86 "HgN/A
8:50 AM84 °FPassing clouds.7 mph66%29.86 "HgN/A
7:50 AM81 °FPassing clouds.7 mph74%29.83 "HgN/A
5:50 AM79 °FPassing clouds.5 mph79%29.83 "HgN/A
10:50 PM
Mon, Aug 31
82 °FPassing clouds.5 mph70%29.86 "HgN/A
9:50 PM84 °FPassing clouds.5 mph66%29.86 "HgN/A
Weather by CustomWeather, © 2015

See weather overviewHow to use our weather pages